Regional Weather Roundup
Issued by NWS Grand Forks, ND

Home | Current Version | Previous Version | Graphics & Text | Print | Product List | Glossary On
Versions: 1 2 3 4 5 6 7 8 9 10 11 12 13 14 15 16 17 18 19 20 21 22 23 24 25 26 27 28 29 30 31 32 33 34 35 36 37 38 39 40 41 42 43 44 45 46 47 48 49 50
000
ASUS43 KFGF 021510
RWRFGF
PRAIRIE TO PINES  WEATHER ROUNDUP
NATIONAL WEATHER SERVICE EASTERN NORTH DAKOTA/GRAND FORKS ND
1000 AM CDT SUN AUG 02 2015

 **SATELLITE DATA USED TO AUGMENT SKY COVER AT AUTOMATED STATIONS**
 *****  WEATHER ACROSS EASTERN NORTH DAKOTA  *****

CITY           SKY/WX    TMP DP  RH WIND       PRES   REMARKS
GRAND FORKS    MOSUNNY   70  58  65 NW14      29.79R
GRAND FRKS AFB SUNNY     70  59  67 N15       29.80R
DEVILS LAKE    SUNNY     66  54  63 N17       29.85R
FARGO          MOSUNNY   72  61  68 NW13      29.78R
WAHPETON ARPT  SUNNY     72  57  60 N17G25    29.77R
$$

 ***** WEATHER ACROSS CENTRAL AND WESTERN NORTH DAKOTA  *****

CITY           SKY/WX    TMP DP  RH WIND       PRES   REMARKS
BISMARCK       SUNNY     71  55  56 N8        29.93R
MINOT          SUNNY     68  55  63 NW14      29.93R
JAMESTOWN      SUNNY     69  59  70 N13       29.86R
MINOT AFB      SUNNY     70  55  58 N15       29.92R
GARRISON         N/A     69  57  65 N9        29.93R
WILLISTON      SUNNY     70  53  54 N10       30.00R
DICKINSON      SUNNY     70  53  54 N9        30.00R
HETTINGER      SUNNY     69  54  58 N12       30.00S
$$

 *****  OTHER AIRPORT OBSERVATIONS IN OUR AREA  *****

CITY           SKY/WX    TMP DP  RH WIND       PRES   REMARKS
WALHALLA       FAIR      68  63  83 MISG      29.83R
GRAFTON AIRPOR FAIR      70  59  68 N17       29.81R
VALLEY CITY AR FAIR      70  57  64 N13       29.84R
CANDO          NOT AVBL
CAVALIER APRT  FAIR      66  59  77 NW13      29.81R
GWINNER        FAIR      72  61  68 N14G20    29.82R
SHEYENNE NWR     N/A     72  60  67 N9        29.95
ROLLA          FAIR      64  54  68 N14       29.91R
 ***** THE ABOVE OBSERVATIONS ARE NON NWS ARE NOT QUALITY
       CONTROLLED AND MAY MIS-REPORT RAIN FOR SNOW...
$$

  *****  WEATHER ACROSS NORTHERN MINNESOTA  *****

CITY           SKY/WX    TMP DP  RH WIND       PRES   REMARKS
FLAG ISLAND    MOSUNNY   66  54  63 NW17      29.71R
WARROAD        MOSUNNY   66  59  77 NW15      29.74R
ROSEAU         SUNNY     64  57  77 NW12G17   29.75R
HALLOCK        SUNNY     68  57  68 N12       29.78S
THF RVR FALLS  PTSUNNY   68  57  68 NW15      29.77R
BAUDETTE       PTSUNNY   69  61  75 NW16      29.71R
WASKISH        MOSUNNY   70  61  73 NW8       29.71R
CROOKSTON      SUNNY     68  57  68 NW14      29.78R
STEPHEN NDAWN    N/A     66  61  82 N12         N/A
GREENBUSH NDAW   N/A     68  55  64 NW9         N/A
$$
  *****  WEATHER ACROSS CENTRAL AND WEST MINNESOTA  *****

CITY           SKY/WX    TMP DP  RH WIND       PRES   REMARKS
FOSSTON        PTSUNNY   70  59  68 N10       29.76R
BEMIDJI        PTSUNNY   69  62  77 NW12      29.73R
PARK RAPIDS    MOSUNNY   72  58  61 N8        29.73R
ELBOW LAKE     FAIR      72  62  70 N14G22    29.74R
WADENA         MOSUNNY   70  63  78 NW9       29.73R
DETROIT LAKES  MOSUNNY   68  61  77 NW13      29.77R
MOORHEAD       MOSUNNY   70  63  78 N12       29.78R
FERGUS FALLS   SUNNY     72  61  68 N14G23    29.75R
MORRIS MN      SUNNY     73  66  78 N15       29.71R
STAPLES        PTSUNNY   70  61  73 NW5       29.71R
$$
  *****  WEATHER ELSEWHERE ACROSS MINNESOTA  *****

CITY           SKY/WX    TMP DP  RH WIND       PRES   REMARKS
DULUTH         CLOUDY    70  58  65 NW8       29.64S
INTRNTL FALLS  MOSUNNY   69  56  62 N10       29.68R
ELY            PTSUNNY   63  59  88 CALM      29.64R
CLOQUET        CLOUDY    72  55  56 W10       29.67R
WHEATON        SUNNY     72  63  73 N15G23    29.77R
BRAINERD       CLOUDY    72  61  68 N8        29.69R
HIBBING        LGT RAIN  65  59  81 N6        29.65R
ALEXANDRIA     SUNNY     74  62  66 N17       29.73R
SAINT CLOUD    MOSUNNY   71  66  84 CALM      29.66R
MINNEAPOLIS    MOSUNNY   77  64  64 SW13G20   29.65R
$$

  *****  WEATHER ACROSS SOUTH DAKOTA  *****

CITY           SKY/WX    TMP DP  RH WIND       PRES   REMARKS
SIOUX FALLS    MOSUNNY   76  66  71 VRB6      29.78R
BROOKINGS      SUNNY     75  61  60 NW17      29.79R
WATERTOWN      SUNNY     75  65  70 N18       29.79R
HURON          SUNNY     74  62  66 N15       29.80R
SISSETON         N/A     74  62  66 N17G28    29.77R
ABERDEEN       SUNNY     74  60  61 N20       29.83R
MITCHELL       SUNNY     78  65  63 NW10      29.80R
PIERRE         SUNNY     74  60  61 N15       29.86R
MOBRIDGE       SUNNY     74  59  59 N9        29.89R
RAPID CITY     SUNNY     72  51  47 N10       30.00R
$$

  *****  SOME WEATHER IN NEARBY STATES *****

CITY           SKY/WX    TMP DP  RH WIND       PRES   REMARKS
GLASGOW MT     SUNNY     69  52  54 NE7       30.04S
GREAT FALLS MT SUNNY     63  52  67 W10       30.10R
CHEYENNE WY    SUNNY     78  53  41 CALM      30.15S
SCOTTSBLUFF NE SUNNY     73  58  59 CALM      30.02S
OMAHA NE       MOSUNNY   84  71  65 SW8       29.85S
DES MOINES IA  MOSUNNY   84  71  65 W14       29.81S
DAVENPORT IA   MOSUNNY   79  65  62 SW13      29.85S
CHICAGO IL     MOSUNNY   82  60  47 SW21G29   29.82F
EAU CLAIRE WI  SUNNY     78  66  66 SW14      29.64F
LA CROSSE WI   SUNNY     82  69  64 SW12      29.69F
$$

  *****  SOME NATIONAL WEATHER *****

CITY           SKY/WX    TMP DP  RH WIND       PRES   REMARKS
LA GUARDIA NY  MOSUNNY   84  51  31 SW6       29.93R
RALEIGH NC     PTSUNNY   82  58  43 NE10      29.99S
ATLANTA GA     MOSUNNY   83  62  49 E10       29.98S
NEW ORLEANS LA MOSUNNY   88  66  48 NE6       29.91R HX  90
OKLAHOMA CITY  CLOUDY    79  67  66 S13       29.99R
ALBUQUERQUE NM MOSUNNY   70  58  65 W5        30.20R
SALT LAKE CITY PTSUNNY   79  41  25 S9        30.00S
LOS ANGELES CA CLOUDY    69  64  84 CALM      29.92R
BOISE ID       SUNNY     77  40  26 SE5       29.93R
SEATTLE WA     PTSUNNY   65  54  67 W5        29.96R
$$

*** WEATHER ACROSS MANITOBA...SASKATCHEWAN AND ONTARIO ***
                ***ONTARIO***

CITY           SKY/WX    TMP DP  RH WIND       PRES   REMARKS
GERALDTON      PTSUNNY   64  57  77 W7        29.54F
THUNDER BAY    PTSUNNY   68  61  77 NW12      29.58S
SIOUX LOOKOUT  MOSUNNY   64  55  72 NW10G17   29.61F
TORONTO        MOSUNNY   81  54  39 SW14      29.82F
BIG TROUT LK   LGT RAIN  50  48  93 NW10G20   29.47R
PICKLE LAKE    PTSUNNY   57  48  72 W10       29.55S
DRYDEN         SUNNY     64  54  68 W15       29.64S
KENORA         MOSUNNY   66  50  55 NW12G18   29.70R
$$
                *** MANITOBA***

CITY           SKY/WX    TMP DP  RH WIND       PRES   REMARKS
BRANDON        MOSUNNY   70  48  46 NW12      29.88R
DAUPHIN        SUNNY     68  52  56 NW12G17   29.85R
ISLAND LAKE    LGT RAIN  52  50  93 NW14      29.59S
PILOT MOUND      N/A     64  55  72 NW12        N/A
THE PAS        MOSUNNY   61  46  59 NW16G28   29.81S
THOMPSON       LGT RAIN  52  48  87 N15G21    29.67R
WINNIPEG       MOSUNNY   70  55  60 NW14      29.78R
LYNN LAKE      CLOUDY    54  46  76 N18G25    29.79R
CHURCHILL      LGT RAIN  46  45  93 N22G32    29.59R FOG
$$
                ***SASKATCHEWAN***

CITY           SKY/WX    TMP DP  RH WIND       PRES   REMARKS
ESTEVAN        MOSUNNY   66  55  68 NW8       29.98R
KINDERSLEY     MOSUNNY   64  54  68 VRB2      30.07R
LLOYDMINSTER   MOSUNNY   64  54  68 VRB2      30.06S
PRINCE ALBERT  SUNNY     63  55  77 NW9       29.98S
REGINA         MOSUNNY   64  55  72 N9        30.02R
YORKTON        SUNNY     64  52  63 NW12      29.94R
N. BATTLEFORD  SUNNY     61  54  77 NW6       30.07S
LA RONGE       MOSUNNY   64  43  45 NW10      29.96R
SASKATOON      SUNNY     63  55  77 NW5       30.04S
SWIFT CURRENT  CLOUDY    61  54  77 NW5       30.07R
$$
NOTE: THESE ARE AUTOMATED STATIONS WITH LIMITED QUALITY CONTROL
      "FAIR" INDICATES FEW OR NO CLOUDS BELOW 12,000 FEET WITH NO
      SIGNIFICANT WEATHER AND/OR OBSTRUCTIONS TO VISIBILITY.
      SKY/WX - SKY CONDITION AND SIGNIFICANT WEATHER.
      TMP - AIR TEMPERATURE.    DP   - DEWPOINT TEMPERATURE.
      RH  - RELATIVE HUMIDITY.  PRES - PRESSURE.
      HX  - HEAT INDEX.         WCI  - WIND CHILL INDEX.
$


USA.gov is the U.S. government's official web portal to all federal, state and local government web resources and services.